Change the Weather History Date:

Tuesday, November 5, 2013

  Actual Average Record
Temperature  
Mean Temperature 49 °F -  
Max Temperature 57 °F 49 °F 71 °F (2008)
Min Temperature 41 °F 29 °F 3 °F (1951)
Degree Days  
Heating Degree Days 16    
Moisture  
Dew Point 46 °F    
Average Humidity 89    
Maximum Humidity 94    
Minimum Humidity 83    
Precipitation  
Precipitation 0.36 in - - ()
Sea Level Pressure  
Sea Level Pressure 30.03 in    
Wind  
Wind Speed 7 mph (ESE)    
Max Wind Speed 20 mph    
Max Gust Speed 26 mph    
Visibility 8 miles    
Events Rain    
Averages and records for this station are not official NWS values.
T = Trace of Precipitation, MM = Missing Value Source: NWS Daily Summary

Daily Weather History Graph

Daily Weather History Graph

Search for Another Location

Airport or City:

Trip Planner

Search our weather history database for the weather conditions in past years. The results will help you decide how hot, cold, wet, or windy it might be!

Date:

Astronomy

Nov. 05, 2013 Rise Set
Actual Time 6:46 AM CST 4:56 PM CST
Civil Twilight 6:16 AM CST 5:25 PM CST
Nautical Twilight 5:43 AM CST 5:59 PM CST
Astronomical Twilight 5:10 AM CST 6:31 PM CST
Moon 9:03 AM CST (11/5) 6:56 PM CST (11/5)
Length of Visible Light 11h 08m
Length of Day
10h 09m
Waxing Crescent, 7% of the Moon is Illuminated
Nov 5
Waxing Crescent
Nov 9
First Quarter
Nov 17
Full
Nov 25
Last Quarter
Dec 2
New

Hourly Weather History & Observations

Time (CST) Temp. Windchill Dew Point Humidity Pressure Visibility Wind Dir Wind Speed Gust Speed Precip Events Conditions
12:15 AM 49.3 °F - 44.4 °F 83% 30.16 in 10.0 mi North 4.6 mph - N/A   Mostly Cloudy
12:35 AM 46.9 °F - 41.9 °F 83% 30.16 in 10.0 mi North 4.6 mph - N/A   Overcast
12:55 AM 46.9 °F - 42.3 °F 84% 30.17 in 10.0 mi NNW 4.6 mph - N/A   Overcast
1:15 AM 46.9 °F - 42.1 °F 83% 30.17 in 10.0 mi NNW 4.6 mph - N/A   Mostly Cloudy
1:35 AM 45.7 °F 43.4 °F 41.2 °F 84% 30.17 in 10.0 mi NNE 4.6 mph - N/A   Overcast
1:55 AM 44.6 °F 43.1 °F 40.1 °F 84% 30.18 in 10.0 mi NNE 3.5 mph - N/A   Overcast
2:15 AM 44.6 °F 43.1 °F 39.7 °F 83% 30.18 in 10.0 mi NE 3.5 mph - N/A   Overcast
2:35 AM 44.6 °F - 40.1 °F 84% 30.18 in 10.0 mi Calm Calm - N/A   Overcast
2:55 AM 43.2 °F - 39.2 °F 86% 30.18 in 10.0 mi Calm Calm - N/A   Mostly Cloudy
3:15 AM 42.8 °F 41.1 °F 39.4 °F 88% 30.18 in 10.0 mi NE 3.5 mph - N/A   Mostly Cloudy
3:35 AM 41.9 °F 37.5 °F 38.7 °F 88% 30.18 in 10.0 mi ENE 6.9 mph - N/A   Scattered Clouds
3:55 AM 41.9 °F 40.0 °F 38.1 °F 86% 30.18 in 10.0 mi NNE 3.5 mph - N/A   Mostly Cloudy
4:15 AM 41.7 °F - 38.5 °F 88% 30.18 in 10.0 mi Calm Calm - N/A   Overcast
4:35 AM 41.9 °F 39.0 °F 38.3 °F 87% 30.18 in 10.0 mi NNE 4.6 mph - N/A   Overcast
4:55 AM 41.9 °F - 38.3 °F 87% 30.19 in 10.0 mi Calm Calm - N/A   Overcast
5:15 AM 41.9 °F 39.0 °F 37.6 °F 85% 30.19 in 10.0 mi East 4.6 mph - N/A   Overcast
5:35 AM 42.8 °F 41.1 °F 38.3 °F 84% 30.18 in 10.0 mi NNE 3.5 mph - N/A   Overcast
5:55 AM 41.9 °F 40.0 °F 37.8 °F 85% 30.18 in 10.0 mi NE 3.5 mph - N/A   Overcast
6:15 AM 42.3 °F - 37.9 °F 85% 30.19 in 10.0 mi Calm Calm - N/A   Overcast
6:35 AM 42.1 °F 37.1 °F 37.9 °F 85% 30.18 in 10.0 mi NE 8.1 mph - N/A   Mostly Cloudy
6:55 AM 42.4 °F 38.8 °F 38.5 °F 86% 30.19 in 10.0 mi NNE 5.8 mph - N/A   Mostly Cloudy
7:15 AM 42.8 °F 40.1 °F 38.5 °F 85% 30.20 in 10.0 mi NNE 4.6 mph - N/A   Mostly Cloudy
7:35 AM 43.2 °F - 39.2 °F 86% 30.20 in 10.0 mi Calm Calm - N/A   Mostly Cloudy
7:55 AM 43.7 °F 40.3 °F 39.7 °F 86% 30.19 in 10.0 mi ENE 5.8 mph - N/A   Scattered Clouds
8:15 AM 44.6 °F 39.2 °F 40.1 °F 84% 30.17 in 10.0 mi NE 10.4 mph - N/A   Scattered Clouds
8:35 AM 44.6 °F 43.1 °F 40.6 °F 86% 30.19 in 7.0 mi ENE 3.5 mph - N/A Rain Light Rain
8:55 AM 45.9 °F 43.6 °F 42.6 °F 88% 30.20 in 7.0 mi ESE 4.6 mph - N/A   Light Drizzle
9:15 AM 46.9 °F - 43.9 °F 89% 30.18 in 5.0 mi East 5.8 mph - N/A   Mostly Cloudy
9:35 AM 46.9 °F - 44.1 °F 90% 30.17 in 5.0 mi ENE 3.5 mph - N/A Rain Light Rain
9:55 AM 46.9 °F - 44.1 °F 90% 30.17 in 4.0 mi ENE 4.6 mph - N/A Rain Rain
10:15 AM 46.9 °F - 44.6 °F 92% 30.16 in 4.0 mi ENE 4.6 mph - 0.01 in Rain Light Rain
10:35 AM 49.5 °F - 46.9 °F 91% 30.15 in 4.0 mi ENE 5.8 mph - 0.01 in   Light Drizzle
10:55 AM 49.5 °F - 46.8 °F 90% 30.15 in 4.0 mi ENE 6.9 mph - 0.01 in   Mostly Cloudy
11:15 AM 49.5 °F - 46.8 °F 90% 30.14 in 4.0 mi East 8.1 mph - N/A   Mostly Cloudy
11:35 AM 49.5 °F - 46.6 °F 90% 30.12 in 5.0 mi East 9.2 mph - N/A   Scattered Clouds
11:55 AM 49.5 °F - 46.4 °F 89% 30.11 in 5.0 mi East 6.9 mph - N/A   Scattered Clouds
12:15 PM 49.5 °F - 45.9 °F 87% 30.09 in 7.0 mi East 8.1 mph - N/A   Mostly Cloudy
12:35 PM 49.5 °F - 45.9 °F 87% 30.06 in 7.0 mi East 9.2 mph - N/A   Scattered Clouds
12:55 PM 49.5 °F - 45.9 °F 87% 30.04 in 7.0 mi ESE 8.1 mph - N/A   Mostly Cloudy
1:15 PM 49.5 °F - 46.4 °F 89% 30.03 in 5.0 mi ESE 8.1 mph - N/A Rain Light Rain
1:35 PM 49.5 °F - 46.6 °F 90% 30.01 in 5.0 mi ESE 11.5 mph - N/A Rain Light Rain
1:55 PM 49.6 °F - 47.1 °F 91% 30.00 in 4.0 mi ESE 11.5 mph - N/A Rain Light Rain
2:15 PM 50.9 °F - 48.4 °F 91% 29.99 in 4.0 mi SE 13.8 mph - 0.01 in Rain Rain
2:35 PM 50.9 °F - 48.4 °F 91% 29.98 in 5.0 mi SE 11.5 mph - 0.03 in Rain Light Rain
2:55 PM 50.9 °F - 48.6 °F 92% 29.97 in 3.0 mi SE 10.4 mph - 0.04 in Rain Rain
3:15 PM 51.3 °F - 49.1 °F 92% 29.95 in 4.0 mi SE 10.4 mph 16.1 mph 0.02 in Rain Rain
3:35 PM 52.0 °F - 50.0 °F 93% 29.94 in 7.0 mi SE 12.7 mph 18.4 mph 0.03 in Rain Light Rain
3:55 PM 52.0 °F - 50.0 °F 93% 29.92 in 5.0 mi SE 12.7 mph 20.7 mph 0.03 in Rain Light Rain
4:15 PM 52.0 °F - 50.0 °F 93% 29.92 in 5.0 mi SE 13.8 mph 18.4 mph 0.01 in Rain Rain
4:35 PM 52.0 °F - 50.0 °F 93% 29.91 in 7.0 mi SSE 10.4 mph 17.3 mph 0.03 in Rain Light Rain
4:55 PM 52.2 °F - 50.2 °F 93% 29.90 in 7.0 mi SSE 12.7 mph - 0.05 in Rain Rain
5:15 PM 54.5 °F - 52.3 °F 92% 29.89 in 4.0 mi SSE 15.0 mph 20.7 mph 0.05 in Rain Heavy Rain
5:35 PM 54.5 °F - 52.7 °F 94% 29.89 in 7.0 mi SSE 15.0 mph - 0.09 in Rain Light Rain
5:55 PM 54.5 °F - 52.7 °F 94% 29.88 in 10.0 mi SSE 15.0 mph - 0.10 in   Drizzle
6:15 PM 54.5 °F - 52.5 °F 93% 29.87 in 5.0 mi South 11.5 mph 17.3 mph 0.01 in Rain Rain
6:35 PM 54.5 °F - 52.3 °F 92% 29.87 in 10.0 mi South 10.4 mph 20.7 mph 0.01 in   Overcast
6:55 PM 54.5 °F - 52.3 °F 92% 29.87 in 7.0 mi South 15.0 mph 19.6 mph 0.01 in Rain Light Rain
7:15 PM 54.5 °F - 52.3 °F 92% 29.85 in 7.0 mi South 12.7 mph 19.6 mph N/A Rain Light Rain
7:35 PM 54.5 °F - 52.2 °F 92% 29.85 in 7.0 mi South 11.5 mph 18.4 mph 0.01 in   Drizzle
7:55 PM 54.5 °F - 52.2 °F 92% 29.84 in 5.0 mi South 16.1 mph 24.2 mph 0.07 in Rain Rain
8:15 PM 54.5 °F - 52.3 °F 92% 29.83 in 7.0 mi South 12.7 mph 20.7 mph 0.02 in Rain Light Rain
8:35 PM 54.5 °F - 52.2 °F 92% 29.83 in 10.0 mi South 16.1 mph 20.7 mph 0.02 in   Light Drizzle
8:55 PM 54.5 °F - 52.2 °F 92% 29.83 in 10.0 mi South 17.3 mph 24.2 mph 0.02 in   Light Drizzle
9:15 PM 54.5 °F - 52.0 °F 91% 29.82 in 7.0 mi South 19.6 mph 26.5 mph 0.02 in Rain Rain
9:35 PM 54.9 °F - 52.5 °F 92% 29.82 in 10.0 mi South 17.3 mph 24.2 mph 0.03 in Rain Rain
9:55 PM 54.7 °F - 52.3 °F 92% 29.81 in 10.0 mi South 17.3 mph 23.0 mph 0.03 in   Light Drizzle
10:15 PM 55.8 °F - 53.4 °F 92% 29.81 in 10.0 mi South 15.0 mph 21.9 mph N/A   Overcast
10:35 PM 56.1 °F - 53.4 °F 91% 29.80 in 10.0 mi South 13.8 mph 23.0 mph N/A   Overcast
10:55 PM 57.2 °F - 54.5 °F 91% 29.80 in 10.0 mi South 15.0 mph 20.7 mph N/A   Overcast
11:15 PM 57.2 °F - 54.5 °F 91% 29.79 in 10.0 mi South 17.3 mph 24.2 mph N/A   Overcast
11:35 PM 57.2 °F - 54.5 °F 91% 29.79 in 10.0 mi South 12.7 mph 20.7 mph N/A   Overcast
11:55 PM 57.2 °F - 54.1 °F 89% 29.78 in 7.0 mi SSW 13.8 mph 19.6 mph N/A   Overcast